Home > Weather > London > Past weeks

Flag for United Kingdom Past Weather in London, England, United Kingdom — Yesterday and Last 2 Weeks

Now
63 °F

Partly sunny.


Feels Like: 63 °F
Forecast: 60 / 71 °F
Wind: 3 mph from Northwest

Location: Northolt

Current Time: Jul 28, 2016 at 9:54:55 AM

Latest Report: Jul 28, 2016 at 8:50 AM


Visibility: N/A

Pressure: 29.98 "Hg

Humidity: 64%

Dew Point: 50 °F

Location of LondonLocation

Past Weather in London — Graph

°F

London Temperature Yesterday

Maximum temperature yesterday: 77 °F (at 3:50 PM)
Minimum temperature yesterday: 63 °F (at 1:50 AM)
Average temperature yesterday: 67 °F

High & Low Weather Summary for the Past Weeks

 TemperatureHumidityPressure
High91 °F (Jul 19, 2:50 PM)100% (Jul 18, 4:50 AM)30.30 "Hg (Jul 18, 4:50 AM)
Low50 °F (Jul 15, 4:50 AM)29% (Jul 18, 4:50 PM)29.74 "Hg (Jul 20, 5:50 AM)
Average68 °F70%30.09 "Hg
* Reported Jul 13 8:50 AM — Jul 28 8:50 AM, London, Weather by CustomWeather, © 2016

Note: Actual official high and low records may vary slightly from our data, if they occured in-between our weather recording intervals... More about our weather records

Advertising

London Weather History for the Previous 24 Hours

Scroll right to see more
 ConditionsComfort  
Time TempWeatherWind HumidityBarometerVisibility
8:50 AM
Thu, Jul 28
63 °FPartly sunny.3 mph64%29.98 "HgN/A
7:50 AM59 °FPassing clouds.3 mph77%29.98 "HgN/A
6:58 AM57 °FScattered clouds.2 mph82%29.98 "HgN/A
5:50 AM57 °FPassing clouds.3 mph77%29.98 "HgN/A
4:50 AM57 °FPassing clouds.3 mph82%29.98 "HgN/A
3:50 AM59 °FPassing clouds.5 mph77%29.98 "HgN/A
2:50 AM61 °FPassing clouds.5 mph72%29.98 "HgN/A
1:50 AM64 °FPassing clouds.5 mph64%29.98 "HgN/A
12:50 AM66 °FPassing clouds.6 mph56%29.98 "HgN/A
11:50 PM
Wed, Jul 27
66 °FPartly cloudy.6 mph60%29.98 "HgN/A
10:50 PM68 °FPassing clouds.9 mph60%29.98 "HgN/A
9:50 PM68 °FBroken clouds.5 mph69%29.95 "HgN/A
8:50 PM70 °FScattered clouds.5 mph64%29.95 "HgN/A
7:50 PM72 °FScattered clouds.5 mph65%29.95 "HgN/A
6:50 PM73 °FScattered clouds.6 mph61%29.95 "HgN/A
5:50 PM73 °FScattered clouds.6 mph61%29.95 "HgN/A
4:50 PM75 °FScattered clouds.9 mph61%29.95 "HgN/A
3:50 PM77 °FScattered clouds.12 mph54%29.95 "HgN/A
2:50 PM72 °FScattered clouds.12 mph69%29.95 "HgN/A
1:50 PM70 °FScattered clouds.8 mph73%29.98 "HgN/A
12:50 PM68 °FSprinkles. Broken clouds.7 mph78%29.98 "HgN/A
11:50 AM68 °FBroken clouds.12 mph83%29.98 "HgN/A
10:50 AM64 °FPartly sunny.8 mph88%29.98 "HgN/A
9:50 AM64 °FDrizzle. Partly sunny.12 mph88%29.98 "Hg5 mi
Weather by CustomWeather, © 2016

See weather overviewHow to use our weather pages